星链-4730 (STARLINK-4730 )

导读

STARLINK-4730是美国SpaceX公司星链星座的成员,于2022年9月11日发射入轨,属于星链低轨通信卫星组网的一部分。它采用平板式设计,搭载相控阵通信天线与霍尔推进器,运行在近地轨道,为全球提供高速宽带互联网接入服务,覆盖偏远地区,并支持航空航海、应急通信等场景,设计寿命约5-7年,退役后将主动离轨在大气层焚毁。

基本信息
目录编号:
53794
目录名称:
STARLINK-4730
国际标识:
2022-111X
轨道中心:
EARTH
卫星名称:
星链-4730
卫星全名:
星链-4730 (STARLINK-4730 )
卫星状态:
在轨 (已飞行1454 天)
发射日期:
2022-09-11 UTC
国别 :
美国 (US)
星等 :
--
轨道信息
数据来源 国际轨道数据 AOE轨道数据
星历时间 2026-09-04T03:47:47+0800
8小时前
查看轨道信息
2026-09-01T02:00:00+0800
3天前
查看轨道信息
半长轴 6848.88km 6848.86km
偏心率 0.0001264 0.0001358
轨道倾角 53.160° 53.156°
近地点辐角 83.875° 63.877°
升交点赤经 183.707° 198.023°
平近点角 276.239° 251.670°
近地点 469.877km 469.792km
远地点 471.609km 471.654km
周期 94.013分钟 94.013分钟
每日圈数 15.316992 15.317059
详细信息
固有亮度:
5
最大亮度:
2.5
卫星平台:
Starlink v1.5
覆盖范围:
全球
运营商:
太空探索技术公司
运营商所在国:
美国
制造商(研发单位):
太空探索技术公司
制造商所在国:
美国
使用方式:
暂无
卫星简介
星链(Starlink)计划是由太空探索技术公司(SpaceX)提出的一个巨型低轨卫星互联网星座项目,计划在2019年至2024年间在太空搭建由约1.2万颗卫星组成的“星链”网络,其中1584颗将部署在地球上空550千米处的近地轨道,并从2020年开始工作。该卫星仍在工作。
2D轨道图
3D轨道图
轨道高度分析图
轨道倾角分析图
轨道综合分析图
查看轨道综合分析图